Weather History for Troy, MI

Change the Weather History Date:

Saturday, December 8, 2012

  Actual Average (KDET) Record (KDET)
Temperature  
Mean Temperature 40 °F -  
Max Temperature 44 °F 40 °F 64 °F (1966)
Min Temperature 37 °F 28 °F 11 °F (1977)
Degree Days  
Heating Degree Days 24    
Moisture  
Dew Point 37 °F    
Average Humidity 87    
Maximum Humidity 93    
Minimum Humidity 79    
Precipitation  
Precipitation 0.00 in - - ()
Sea Level Pressure  
Sea Level Pressure 29.97 in    
Wind  
Wind Speed 6 mph (NNE)    
Max Wind Speed 12 mph    
Max Gust Speed 17 mph    
Visibility 7 miles    
Events Rain    
Averages and records for this station are not official NWS values.
T = Trace of Precipitation, MM = Missing Value Source: NWS Daily Summary

Daily Weather History Graph

Daily Weather History Graph

Search for Another Location

Airport:

Trip Planner

Search our weather history database for the weather conditions in past years. The results will help you decide how hot, cold, wet, or windy it might be!

Date:

Astronomy

Dec. 08, 2012 Rise Set
Actual Time 7:50 AM EST 4:59 PM EST
Civil Twilight 7:18 AM EST 5:31 PM EST
Nautical Twilight 6:43 AM EST 6:06 PM EST
Astronomical Twilight 6:08 AM EST 6:40 PM EST
Moon 2:08 AM EST (12/8) 1:33 PM EST (12/8)
Length of Visible Light 10h 12m
Length of Day
9h 09m
Waning Crescent, 28% of the Moon is Illuminated
Dec 8
Waning Crescent
Dec 13
New
Dec 20
First Quarter
Dec 28
Full
Jan 4
Last Quarter

Hourly Weather History & Observations

Time (EST) Temp. Windchill Dew Point Humidity Pressure Visibility Wind Dir Wind Speed Gust Speed Precip Events Conditions
12:14 AM 44.1 °F 40.8 °F 42.1 °F 93% 29.90 in 2.0 mi ENE 5.8 mph - N/A   Overcast
12:35 AM 44.1 °F 41.5 °F 42.1 °F 93% 29.90 in 2.0 mi ENE 4.6 mph - N/A   Overcast
12:55 AM 44.1 °F 41.5 °F 42.1 °F 93% 29.89 in 2.0 mi ENE 4.6 mph - N/A   Overcast
1:14 AM 44.1 °F 40.8 °F 42.1 °F 93% 29.89 in 2.5 mi ENE 5.8 mph - N/A Rain Light Rain
1:35 AM 44.1 °F 40.8 °F 42.1 °F 93% 29.88 in 2.0 mi ENE 5.8 mph - N/A Rain Rain
1:55 AM 44.1 °F 41.5 °F 42.1 °F 93% 29.87 in 2.0 mi NE 4.6 mph - N/A Rain Light Rain
2:14 AM 43.9 °F 39.9 °F 41.9 °F 93% 29.87 in 1.8 mi NE 6.9 mph - N/A Rain Light Rain
2:35 AM 43.7 °F 39.7 °F 41.9 °F 93% 29.88 in 1.8 mi NE 6.9 mph - N/A   Light Drizzle
2:54 AM 43.7 °F 39.1 °F 41.9 °F 93% 29.87 in 1.5 mi NE 8.1 mph - N/A   Light Drizzle
3:14 AM 43.7 °F 41.1 °F 41.9 °F 93% 29.86 in 1.8 mi NNE 4.6 mph - N/A   Overcast
3:35 AM 43.7 °F 39.7 °F 41.9 °F 93% 29.85 in 1.8 mi NE 6.9 mph - N/A   Overcast
3:54 AM 43.7 °F - 41.9 °F 93% 29.86 in 2.0 mi Calm Calm - N/A   Overcast
4:15 AM 43.7 °F 39.7 °F 41.9 °F 93% 29.86 in 2.0 mi NNE 6.9 mph - N/A   Drizzle
4:34 AM 43.7 °F 39.1 °F 41.9 °F 93% 29.85 in 2.5 mi NNE 8.1 mph - N/A   Light Drizzle
4:54 AM 43.7 °F 40.3 °F 41.9 °F 93% 29.85 in 2.5 mi NNE 5.8 mph - N/A   Overcast
5:15 AM 43.7 °F 41.1 °F 41.9 °F 93% 29.85 in 3.0 mi NNE 4.6 mph - N/A   Light Drizzle
5:34 AM 43.7 °F 40.3 °F 41.9 °F 93% 29.85 in 3.0 mi NNE 5.8 mph - N/A Rain Rain
5:55 AM 43.7 °F 40.3 °F 41.9 °F 93% 29.85 in 2.5 mi North 5.8 mph - N/A Rain Light Rain
6:15 AM 43.3 °F 39.2 °F 41.4 °F 93% 29.85 in 3.0 mi North 6.9 mph - N/A Rain Rain
6:34 AM 43.0 °F 41.3 °F 41.0 °F 93% 29.85 in 5.0 mi NNE 3.5 mph - N/A Rain Light Rain
6:55 AM 42.8 °F 38.6 °F 40.5 °F 91% 29.87 in 7.0 mi North 6.9 mph - N/A Rain Rain
7:15 AM 42.3 °F 37.3 °F 40.1 °F 92% 29.86 in 7.0 mi NNE 8.1 mph - N/A Rain Light Rain
7:34 AM 41.9 °F 37.5 °F 39.7 °F 92% 29.86 in 7.0 mi NNE 6.9 mph - N/A Rain Light Rain
7:55 AM 41.5 °F 37.8 °F 39.4 °F 92% 29.87 in 7.0 mi NNE 5.8 mph - N/A Rain Light Rain
8:15 AM 41.2 °F 36.6 °F 38.8 °F 91% 29.86 in 7.0 mi North 6.9 mph - N/A   Light Drizzle
8:34 AM 41.2 °F 37.3 °F 38.8 °F 91% 29.87 in 10.0 mi North 5.8 mph - N/A   Overcast
8:55 AM 41.0 °F 36.4 °F 38.3 °F 90% 29.87 in 10.0 mi NNE 6.9 mph - N/A   Overcast
9:14 AM 41.0 °F 38.0 °F 38.3 °F 90% 29.88 in 10.0 mi NNE 4.6 mph - N/A   Overcast
9:34 AM 41.0 °F 35.2 °F 38.3 °F 90% 29.89 in 7.0 mi North 9.2 mph - N/A   Overcast
9:55 AM 40.6 °F 36.0 °F 37.9 °F 90% 29.90 in 4.0 mi North 6.9 mph - N/A Rain Rain
10:14 AM 40.5 °F 35.1 °F 37.9 °F 91% 29.92 in 3.0 mi NNW 8.1 mph - N/A Rain Light Rain
10:34 AM 40.1 °F 33.6 °F 37.4 °F 90% 29.93 in 4.0 mi NNW 10.4 mph - N/A   Overcast
10:55 AM 39.4 °F 32.3 °F 36.7 °F 90% 29.93 in 4.0 mi North 11.5 mph 17.3 mph N/A Rain Light Rain
11:14 AM 39.2 °F 33.6 °F 36.3 °F 89% 29.93 in 5.0 mi North 8.1 mph - N/A   Light Drizzle
11:35 AM 38.7 °F 31.8 °F 35.8 °F 89% 29.93 in 5.0 mi North 10.4 mph - N/A   Overcast
11:55 AM 38.7 °F 33.6 °F 36.0 °F 90% 29.93 in 4.0 mi North 6.9 mph - N/A Rain Light Rain
12:14 PM 38.5 °F 32.7 °F 35.8 °F 90% 29.93 in 7.0 mi North 8.1 mph 16.1 mph N/A Rain Light Rain
12:35 PM 38.7 °F 32.9 °F 36.0 °F 90% 29.93 in 10.0 mi North 8.1 mph - N/A   Overcast
12:55 PM 39.0 °F 33.4 °F 35.8 °F 88% 29.93 in 10.0 mi North 8.1 mph - N/A   Overcast
1:14 PM 39.2 °F 35.0 °F 36.0 °F 88% 29.92 in 10.0 mi NNE 5.8 mph - N/A   Overcast
1:35 PM 39.6 °F 33.5 °F 35.6 °F 86% 29.94 in 10.0 mi North 9.2 mph - N/A   Overcast
1:54 PM 39.9 °F 35.1 °F 35.6 °F 85% 29.95 in 10.0 mi North 6.9 mph - N/A   Overcast
2:15 PM 40.1 °F 34.1 °F 35.2 °F 83% 29.96 in 10.0 mi NNW 9.2 mph - N/A   Overcast
2:35 PM 40.3 °F 37.1 °F 35.6 °F 83% 29.97 in 10.0 mi NNW 4.6 mph - N/A   Overcast
2:54 PM 40.5 °F 36.5 °F 35.6 °F 83% 29.98 in 10.0 mi NNW 5.8 mph - N/A   Overcast
3:34 PM 40.5 °F 35.1 °F 34.7 °F 80% 30.01 in 10.0 mi North 8.1 mph - N/A   Overcast
3:55 PM 40.5 °F 37.3 °F 34.7 °F 80% 30.01 in 10.0 mi North 4.6 mph - N/A   Overcast
4:15 PM 40.3 °F 37.1 °F 34.7 °F 80% 30.02 in 10.0 mi North 4.6 mph - N/A   Overcast
4:34 PM 39.9 °F 33.4 °F 34.2 °F 80% 30.04 in 10.0 mi NNW 10.4 mph - N/A   Overcast
4:55 PM 39.4 °F 32.7 °F 33.3 °F 79% 30.06 in 10.0 mi NNW 10.4 mph - N/A   Overcast
5:15 PM 39.0 °F 33.4 °F 33.4 °F 80% 30.07 in 10.0 mi NNW 8.1 mph - N/A   Overcast
5:34 PM 38.7 °F 32.4 °F 33.1 °F 80% 30.07 in 10.0 mi NNE 9.2 mph - N/A   Overcast
5:55 PM 38.3 °F 33.9 °F 33.3 °F 82% 30.08 in 10.0 mi NNW 5.8 mph - N/A   Overcast
6:14 PM 38.3 °F 33.9 °F 32.9 °F 81% 30.09 in 10.0 mi North 5.8 mph - N/A   Overcast
6:34 PM 38.3 °F 31.9 °F 32.9 °F 81% 30.10 in 10.0 mi North 9.2 mph - N/A   Overcast
6:55 PM 38.3 °F 32.5 °F 32.5 °F 80% 30.11 in 10.0 mi North 8.1 mph - N/A   Overcast
7:14 PM 38.1 °F 32.3 °F 32.0 °F 79% 30.12 in 10.0 mi North 8.1 mph - N/A   Overcast
7:34 PM 37.9 °F 32.1 °F 32.4 °F 80% 30.13 in 10.0 mi NNE 8.1 mph - N/A   Overcast
7:54 PM 37.8 °F 33.3 °F 32.2 °F 80% 30.14 in 10.0 mi NNE 5.8 mph - N/A   Overcast
8:14 PM 37.4 °F 33.8 °F 32.0 °F 81% 30.15 in 10.0 mi North 4.6 mph - N/A   Overcast
8:54 PM 37.6 °F 33.1 °F 32.0 °F 80% 30.15 in 10.0 mi North 5.8 mph - N/A   Overcast
9:15 PM 37.6 °F 34.0 °F 31.8 °F 80% 30.16 in 10.0 mi North 4.6 mph - N/A   Overcast
9:34 PM 37.4 °F - 31.6 °F 80% 30.16 in 10.0 mi Calm Calm - N/A   Overcast
9:54 PM 37.6 °F 35.1 °F 31.6 °F 79% 30.16 in 10.0 mi North 3.5 mph - N/A   Overcast
10:15 PM 37.4 °F 34.9 °F 31.8 °F 80% 30.16 in 10.0 mi North 3.5 mph - N/A   Overcast
10:34 PM 37.4 °F - 31.8 °F 80% 30.16 in 10.0 mi Calm Calm - N/A   Overcast
10:55 PM 37.4 °F - 31.5 °F 79% 30.18 in 10.0 mi Calm Calm - N/A   Overcast
11:15 PM 37.4 °F 34.9 °F 31.6 °F 80% 30.18 in 10.0 mi NNE 3.5 mph - N/A   Overcast
11:34 PM 37.4 °F 32.1 °F 31.8 °F 80% 30.18 in 10.0 mi NE 6.9 mph - N/A   Overcast
11:55 PM 37.4 °F 33.8 °F 31.8 °F 80% 30.19 in 10.0 mi NNE 4.6 mph - N/A   Overcast